Hourly Data Report for June 27, 2003

TORONTO CITY
ONTARIO

43°40'00.000" N
79°24'00.000" W
112.50 m
6158355
71508
XTO

Download Data

Hourly Data (June 2003)
Hourly Data Report for June 27, 2003
TIME
LST
Temp Definition
°C
Dew Point Definition
°C
Rel Hum Definition
%
Precip. Amount Definition
mm

Wind Dir Definition
10's deg

Wind Spd Definition
km/h
Visibility Definition
km
Stn Press Definition
kPa
Hmdx Definition


Wind Chill Definition


Weather Definition


00:00 21.1 17.9 82   LegendMM LegendMM LegendMM 99.31 27   LegendNANA
01:00 20.0 17.8 87   LegendMM LegendMM LegendMM 99.33 26   LegendNANA
02:00 20.2 17.0 82   LegendMM LegendMM LegendMM 99.39 25   LegendNANA
03:00 19.9 15.6 76   LegendMM LegendMM LegendMM 99.45     LegendNANA
04:00 19.4 14.3 72   LegendMM LegendMM LegendMM 99.51     LegendNANA
05:00 19.0 14.3 74   LegendMM LegendMM LegendMM 99.58     LegendNANA
06:00 18.6 13.7 73   LegendMM LegendMM LegendMM 99.64     LegendNANA
07:00 18.5 13.0 70   LegendMM LegendMM LegendMM 99.72     LegendNANA
08:00 18.8 12.9 69   LegendMM LegendMM LegendMM 99.80     LegendNANA
09:00 19.8 12.4 62   LegendMM LegendMM LegendMM 99.82     LegendNANA
10:00 20.4 11.9 58   LegendMM LegendMM LegendMM 99.84     LegendNANA
11:00 20.8 11.9 57   LegendMM LegendMM LegendMM 99.85     LegendNANA
12:00 22.5 10.3 46   LegendMM LegendMM LegendMM 99.86     LegendNANA
13:00 23.1 11.6 48   LegendMM LegendMM LegendMM 99.85 25   LegendNANA
14:00 24.8 10.1 39   LegendMM LegendMM LegendMM 99.83 26   LegendNANA
15:00 25.5 9.9 37   LegendMM LegendMM LegendMM 99.82 27   LegendNANA
16:00 25.7 8.8 34   LegendMM LegendMM LegendMM 99.79 26   LegendNANA
17:00 25.6 10.2 38   LegendMM LegendMM LegendMM 99.78 27   LegendNANA
18:00 25.0 10.5 40   LegendMM LegendMM LegendMM 99.77 27   LegendNANA
19:00 24.5 10.5 41   LegendMM LegendMM LegendMM 99.82 26   LegendNANA
20:00 21.0 12.7 59   LegendMM LegendMM LegendMM 99.87     LegendNANA
21:00
22:00 18.3 12.5 69   LegendMM LegendMM LegendMM 99.96     LegendNANA
23:00 17.6 12.5 72   LegendMM LegendMM LegendMM 99.97     LegendNANA

Notes on Data Quality.

Legend

  • E = Estimated
  • M = Missing
  • NA = Not Available*
  • [empty] = Indicates an unobserved value
Date modified: